EHI
0 0 0 0 0 0 0 0 0 0 0 0 0 0 0 0 0 0 0 0 0 0 0 0 0 0 0 0 0 0 0 0 0 0 0 0 0 0
0 0 0 0 0 0 0 0 0 0 0 0 0 0 0 0 0 0 0 0 0 0 0 0 0 0 0 0 0 0 0 0 0 0 0 0 0 0
0 0 0 0 0 0 0 0 0 0 0 0 0 0 0 0 0 0 0 0 0 0 0 0 0 0 0 0 0 0 0 0 0 0 0 0 0 0
0 0 0 0 0 0 0 0 0 0 0 0 0 0 0 0 0 0 0 0 0 0 0 0 0 0 0 0 0 0 0 0 0 0 0 0 0 0
0 0 0 0 0 0 0 0 0 0 0 0 0 0 0 0 0 0 0 0 0 0 0 0 0 0 0 0 0 0 0 0 0 0 0 0 0 0
0 0 0 0 0 0 0 0 0 0 0 0 0 0 0 0 0 0 0 0 0 0 0 0 0 0 0 0 0 0 0 0 0 0 0 0 0 0
0 0 0 0 0 0 0 0 0 0 0 0 0 0 0 0 0 0 0 0 0 0 0 0 0 0 0 0 0 0 0 0 0 0 0 0 0 0
0 0 0 0 0 0 0 0 0 0 0 0 0 0 0 0 0 0 0 0 0 0 0 0 0 0 0 0 0 0 0 0 0 0 0 0 0 0
0 0 0 0 0 0 0 0 0 0 0 0 0 0 0 0 0 0 0 0 0 0 0 0 0 0 0 0 0 0 0 0 0 0 0 0 0 0
0 0 0 0 0 0 0 0 0 0 0 0 0 0 0 0 0 0 0 0 0 0 0 0 0 0 0 0 0 0 0 0 0 0 0 0 0 0
0 0 0 0 0 0 0 0 0 0 0 0 0 0 0 0 0 0 0 0 0 0 0 0 0 0 0 0 0 0 0 0 0 0 0 0 0 0
0 0 0 0 0 0 0 0 0 0 0 0 0 0 0 0 0 0 0 0 0 0 0 0 0 0 0 0 0 0 0 0 0 0 0 0 0 0
0 0 0 0 0 0 0 0 0 0 0 0 0 0 0 0 0 0 0 0 0 0 0 0 0 0 0 0 0 0 0 0 0 0 0 0 0 0
0 0 0 0 0 0 0 0 0 0 0 0 0 0 0 0 0 0 0 0 0 0 0 0 0 0 0 0 0 0 0 0 0 0 0 0 0 0
0 0 0 0 0 0 0 0 0 0 0 0 0 0 0 0 0 0 0 0 0 0 0 0 0 0 0 0 0 0 0 0 0 0 0 0 0 0
0 0 0 0 0 0 0 0 0 0 0 0 0 0 0 0 0 0 0 0 0 0 0 0 0 0 0 0 0 0 0 0 0 0 0 0 0 0
0 0 0 0 0 0 0 0 0 0 0 0 0 0 0 0 0 0 0 0 0 0 0 0 0 0 0 0 0 0 0 0 0 0 0 0 0 0
0 0 0 0 0 0 0 0 0 0 0 0 0 0 0 0 0 0 0 0 0 0 0 0 0 0 0 0 0 0 0 0 0 0 0 0 0 0
0 0 0 0 0 0 0 0 0 0 0 0 0 0 0 0 0 0 0 0 0 0 0 0 0 0 0 0 0 0 0 0 0 0 0 0 0 0
0 0 0 0 0 0 0 0 0 0 0 0 0 0 0 0 0 0 0 0 0 0 0 0 0 0 0 0 0 0 0 0 0 0 0 0 0 0
0 0 0 0 0 0 0 0 0 0 0 0 0 0 0 0 0 0 0 0 0 0 0 0 0 0 0 0 0 0 0 0 0 0 0 0 0 0
0 0 0 0 0 0 0 0 0 0 0 0 0 0 0 0 0 0 0 0 0 0 0 0 0 0 0 0 0 0 0 0 0 0 0 0 0 0
0 0 0 0 0 0 0 0 0 0 0 0 0 0 0 0 0 0 0 0 0 0 0 0 0 0 0 0 0 0 0 0 0 0 0 0 0 0
Wind_Speed
9 10 9 8 8 8 7 8 9 8 9 9 6 9 8 8 9 10 10 13 15 14 13 12 10 10 9 9 8 7 6 5 5 5 5 6 7 7
7 9 9 8 8 8 8 8 9 10 10 7 7 7 9 7 10 10 10 12 14 15 14 13 12 12 11 10 9 8 7 6 6 6 6 6 7 7
7 9 10 9 8 7 7 7 9 8 10 6 4 6 10 10 9 9 9 9 9 15 15 15 14 13 12 11 10 9 8 7 7 7 6 6 7 7
8 8 9 7 10 8 7 9 8 8 8 8 5 6 8 10 10 10 8 7 8 13 16 15 15 15 14 13 11 10 9 8 7 6 6 6 7 7
8 9 9 9 10 7 8 8 7 7 7 6 5 5 4 6 8 7 8 7 6 9 14 15 16 16 15 14 13 11 10 8 7 6 6 6 6 6
8 8 9 8 9 9 8 8 7 7 7 6 5 4 4 6 7 7 7 7 7 6 10 11 14 16 16 15 13 11 10 9 8 7 6 5 5 5
7 8 8 8 9 9 7 7 7 7 7 7 6 5 6 6 9 7 8 6 6 6 7 7 8 8 11 13 13 12 10 10 8 7 6 5 4 4
8 8 8 8 10 11 12 11 11 10 10 9 8 9 10 9 8 8 7 6 6 7 7 7 7 8 7 7 12 13 12 11 10 8 7 5 4 4
8 8 7 7 9 9 11 13 13 14 14 11 11 11 11 10 10 11 10 9 7 8 8 7 7 7 6 7 13 14 13 12 11 9 8 6 4 4
8 8 9 9 8 8 8 9 10 11 12 11 12 11 10 10 12 12 10 6 2 4 7 6 6 5 5 6 13 15 14 13 12 10 9 7 5 4
9 9 9 9 11 11 9 9 9 8 9 11 12 11 11 12 11 7 8 8 4 4 5 4 5 4 4 5 8 14 14 14 13 11 10 8 6 4
8 9 10 10 12 12 9 9 9 8 7 6 7 7 8 11 15 12 11 9 6 5 7 6 5 5 4 3 4 6 8 11 12 11 10 8 7 4
8 8 8 12 14 14 12 10 10 9 7 6 5 5 5 6 8 7 8 8 7 5 8 8 6 5 5 4 4 5 6 6 7 7 8 9 8 5
9 8 9 15 15 15 11 11 11 9 5 5 5 5 5 5 4 4 4 3 2 4 10 9 6 7 6 5 5 5 5 5 5 5 4 7 7 6
9 13 16 17 16 11 11 12 9 6 4 5 5 5 4 4 3 3 4 5 6 5 6 4 6 7 5 5 6 6 5 5 5 5 5 5 4 4
9 12 15 14 12 11 10 7 5 5 5 5 5 3 2 3 4 4 5 6 5 4 4 4 4 7 5 5 6 6 6 6 7 6 5 4 3 3
12 9 8 7 7 6 5 5 4 4 5 4 4 3 3 4 4 4 5 5 5 6 5 4 4 4 4 4 5 6 7 5 6 6 5 5 4 4
12 8 7 7 7 7 6 5 5 5 4 4 4 4 4 5 4 4 5 6 6 6 6 6 7 5 3 2 1 6 6 5 6 6 5 5 5 4
9 7 7 7 7 6 5 5 5 4 4 4 4 4 4 4 5 5 6 6 6 6 7 7 7 7 7 6 3 3 5 6 7 6 5 4 4 4
6 7 7 7 7 6 6 5 5 4 4 3 3 3 4 4 5 6 6 6 6 7 7 7 7 7 6 5 5 4 5 6 6 6 5 3 2 3
7 7 7 7 7 6 6 5 5 4 4 3 3 4 4 4 5 5 6 9 7 7 8 7 6 7 5 6 6 5 4 3 3 4 6 5 4 4
8 8 8 8 7 6 6 5 5 4 4 3 3 3 3 4 5 6 6 7 6 6 6 6 8 7 5 5 6 7 6 6 5 6 4 2 3 5
8 8 8 7 7 6 6 6 6 5 4 3 3 3 3 4 4 5 6 6 6 7 8 7 7 5 5 5 6 6 9 8 6 5 3 2 2 3
Wind_Direction
234 233 233 231 228 230 227 222 223 228 227 216 208 210 206 205 193 199 206 200 203 205 203 201 194 194 196 199 201 205 212 223 241 257 270 285 293 300
241 240 238 237 235 231 230 230 230 235 239 216 210 200 199 203 197 202 205 193 200 201 197 192 189 192 195 198 201 204 211 221 237 252 264 279 288 297
252 246 243 241 238 234 231 232 232 231 240 234 212 198 195 202 198 203 202 199 200 200 199 195 192 194 196 197 200 202 209 220 233 247 260 275 282 291
261 257 252 247 245 239 234 232 233 231 234 235 217 199 204 203 200 200 200 203 202 196 199 198 197 198 197 197 199 202 208 217 227 241 257 272 280 287
266 258 257 251 247 245 244 241 235 232 232 230 224 209 206 198 198 198 200 201 202 197 200 202 202 201 200 199 199 203 207 213 221 233 250 264 274 283
277 268 259 254 253 251 244 243 241 235 229 227 223 207 199 192 193 194 199 201 200 195 202 201 202 203 202 200 200 201 204 211 217 226 238 250 265 278
287 281 271 265 264 258 253 248 242 238 233 228 222 210 203 191 201 196 205 198 200 193 194 195 195 198 197 200 197 196 201 206 209 217 226 238 254 270
293 290 283 266 262 259 254 248 243 238 233 229 226 221 216 211 205 199 194 189 203 190 189 195 189 197 194 193 192 195 201 204 205 209 218 226 239 259
299 296 293 287 277 268 259 250 244 241 236 233 232 227 220 211 202 203 202 200 205 175 178 193 188 199 188 191 190 195 200 203 203 204 209 214 226 241
298 294 292 293 289 283 276 265 257 247 240 238 240 236 227 213 202 204 204 187 126 160 171 182 179 188 177 187 193 196 199 200 200 200 202 203 211 225
298 295 294 292 295 292 279 271 270 268 260 256 256 250 235 216 199 185 179 178 183 184 182 168 159 157 168 188 192 196 199 199 197 196 197 198 199 209
303 297 292 296 300 296 284 272 266 270 273 274 262 249 234 212 198 196 188 187 175 179 180 165 155 150 163 180 183 188 195 198 195 195 196 197 195 202
306 302 300 304 302 299 291 278 272 278 271 262 257 246 232 215 205 202 197 189 179 178 169 161 156 160 153 152 173 184 185 181 187 192 195 197 198 202
302 301 300 301 299 296 288 282 280 279 266 257 250 239 226 216 203 190 180 170 157 163 164 158 150 161 152 150 162 169 178 179 180 180 183 190 197 203
299 298 299 299 299 294 283 281 278 265 256 253 247 241 231 202 167 143 122 107 88 95 134 143 144 149 150 153 151 159 165 175 179 176 178 182 183 187
302 300 300 298 293 286 285 280 271 262 257 255 253 242 212 185 179 167 160 148 127 105 79 94 133 144 144 143 148 160 164 166 172 175 171 174 179 187
307 301 298 299 296 291 286 281 275 269 263 256 245 227 206 192 183 170 161 157 156 153 144 121 100 91 93 135 153 162 161 159 165 162 166 173 184 192
306 297 297 297 294 290 285 282 276 269 265 251 237 225 207 192 178 168 167 167 163 160 156 151 144 129 113 55 107 159 160 156 156 163 168 172 182 188
303 298 297 296 294 290 285 280 278 274 266 251 237 222 203 189 179 175 173 168 163 160 160 160 164 163 169 174 160 184 163 153 153 162 174 177 173 172
303 299 298 297 295 292 288 283 280 277 267 255 243 222 200 190 184 182 179 173 163 157 159 167 177 180 178 160 142 150 173 161 160 161 158 146 119 123
305 300 298 296 295 294 289 283 276 269 263 257 244 223 203 193 188 183 178 174 165 164 171 175 167 139 110 112 118 130 146 151 130 148 151 151 155 167
301 299 297 296 294 293 291 283 276 268 258 248 245 229 205 196 190 182 178 176 174 168 162 147 142 144 152 163 151 141 138 136 126 118 105 113 162 181
301 298 296 295 292 291 288 283 277 270 260 249 243 232 209 197 189 181 179 174 165 159 152 148 149 151 153 152 146 142 143 146 144 142 132 122 100 88